Weather History for KMIW - April, 2013

Change the Weather History Date:

Tuesday, April 2, 2013

  Actual Average Record
Temperature  
Mean Temperature 31 °F 44 °F  
Max Temperature 42 °F 55 °F 82 °F (2012)
Min Temperature 20 °F 33 °F 20 °F (2013)
Degree Days  
Heating Degree Days 34 21  
Month to date heating degree days 69 42  
Since 1 July heating degree days 6215 6343  
Cooling Degree Days 0 0  
Month to date cooling degree days 0 0  
Year to date cooling degree days 0 0  
Moisture  
Dew Point 21 °F    
Average Humidity 70    
Maximum Humidity 92    
Minimum Humidity 48    
Precipitation  
Precipitation 0.00 in 0.07 in 0.70 in (2006)
Month to date precipitation 0.00 0.13  
Sea Level Pressure  
Sea Level Pressure 30.34 in    
Wind  
Wind Speed 8 mph (NW)    
Max Wind Speed 20 mph    
Max Gust Speed 24 mph    
Visibility 10 miles    
Events      
T = Trace of Precipitation, MM = Missing Value Source: NWS Daily Summary

Daily Weather History Graph

Daily Weather History Graph

Search for Another Location

Airport or City:

Trip Planner

Search our weather history database for the weather conditions in past years. The results will help you decide how hot, cold, wet, or windy it might be!

Date:

Astronomy

Apr. 02, 2013 Rise Set
Actual Time 6:52 AM CDT 7:38 PM CDT
Civil Twilight 6:23 AM CDT 8:07 PM CDT
Nautical Twilight 5:50 AM CDT 8:40 PM CDT
Astronomical Twilight 5:15 AM CDT 9:15 PM CDT
Moon 1:48 AM CDT (4/2) 11:39 AM CDT (4/2)
Length of Visible Light 13h 43m
Length of Day
12h 46m
Waning Gibbous, 55% of the Moon is Illuminated
Apr 2
Waning Gibbous
Apr 2
Last Quarter
Apr 10
New
Apr 18
First Quarter
Apr 25
Full

Hourly Weather History & Observations

Time (CDT) Temp. Windchill Dew Point Humidity Pressure Visibility Wind Dir Wind Speed Gust Speed Precip Events Conditions
12:53 AM 24.1 °F 18.2 °F 19.9 °F 84% 30.31 in 10.0 mi WNW 4.6 mph - N/A   Clear
1:53 AM 23.0 °F 17.0 °F 19.0 °F 85% 30.31 in 10.0 mi West 4.6 mph - N/A   Clear
2:53 AM 23.0 °F - 19.0 °F 85% 30.31 in 10.0 mi Calm Calm - N/A   Clear
3:53 AM 21.9 °F 15.7 °F 19.0 °F 89% 30.30 in 10.0 mi WNW 4.6 mph - N/A   Clear
4:53 AM 21.0 °F 14.6 °F 18.0 °F 88% 30.31 in 10.0 mi WNW 4.6 mph - N/A   Clear
5:53 AM 21.0 °F 14.6 °F 18.0 °F 88% 30.32 in 10.0 mi WNW 4.6 mph - N/A   Clear
6:53 AM 21.0 °F 14.6 °F 18.0 °F 88% 30.33 in 10.0 mi West 4.6 mph - N/A   Clear
7:53 AM 25.0 °F 20.7 °F 21.0 °F 85% 30.35 in 10.0 mi WNW 3.5 mph - N/A   Clear
8:53 AM 28.9 °F 21.1 °F 23.0 °F 78% 30.36 in 10.0 mi West 8.1 mph - N/A   Clear
9:53 AM 32.0 °F 24.2 °F 23.0 °F 69% 30.36 in 10.0 mi WNW 9.2 mph - N/A   Clear
10:53 AM 35.1 °F 27.9 °F 21.9 °F 59% 30.36 in 10.0 mi WNW 9.2 mph 16.1 mph N/A   Clear
11:53 AM 37.0 °F 28.5 °F 21.9 °F 54% 30.36 in 10.0 mi WNW 13.8 mph - N/A   Partly Cloudy
12:53 PM 37.9 °F 29.6 °F 21.0 °F 51% 30.35 in 10.0 mi WNW 13.8 mph - N/A   Clear
1:53 PM 39.9 °F 32.1 °F 21.9 °F 49% 30.34 in 10.0 mi NW 13.8 mph - N/A   Partly Cloudy
2:53 PM 39.9 °F 31.4 °F 23.0 °F 51% 30.33 in 10.0 mi NW 16.1 mph 21.9 mph N/A   Scattered Clouds
3:53 PM 39.0 °F 29.9 °F 21.9 °F 50% 30.33 in 10.0 mi NNW 17.3 mph 20.7 mph N/A   Partly Cloudy
4:53 PM 39.9 °F 31.8 °F 23.0 °F 51% 30.33 in 10.0 mi North 15.0 mph - N/A   Mostly Cloudy
5:53 PM 39.9 °F 32.5 °F 23.0 °F 51% 30.34 in 10.0 mi North 12.7 mph - N/A   Scattered Clouds
6:53 PM 37.0 °F 29.3 °F 23.0 °F 57% 30.35 in 10.0 mi North 11.5 mph - N/A   Clear
7:53 PM 33.1 °F 27.7 °F 23.0 °F 66% 30.35 in 10.0 mi North 5.8 mph - N/A   Clear
8:53 PM 32.0 °F 28.7 °F 23.0 °F 69% 30.35 in 10.0 mi NNE 3.5 mph - N/A   Clear
9:53 PM 30.9 °F 27.5 °F 23.0 °F 72% 30.37 in 10.0 mi NNE 3.5 mph - N/A   Clear
10:53 PM 30.0 °F - 23.0 °F 75% 30.37 in 10.0 mi Calm Calm - N/A   Clear
11:53 PM 28.0 °F - 21.9 °F 78% 30.37 in 10.0 mi Calm Calm - N/A   Clear